| time (UTC) | temp F | wind direction | speed MPH | gust MPH | rain 1hr in | rain 24hr in | rain mn in | humidity % | barometer mb |
| 20260507153056 | 55 | 9 | 5.0 | 9.0 | 0.00 | 0.00 | 0.00 | 71 | 1020.8 |
| 20260507151553 | 55 | 19 | 3.0 | 7.0 | 0.00 | 0.00 | 0.00 | 73 | 1020.9 |
| 20260507150059 | 55 | 38 | 2.0 | 5.0 | 0.00 | 0.00 | 0.00 | 74 | 1021.0 |
| 20260507144601 | 54 | 30 | 4.0 | 7.0 | 0.00 | 0.00 | 0.00 | 74 | 1021.0 |
| 20260507143059 | 54 | 360 | 3.0 | 5.0 | 0.00 | 0.00 | 0.00 | 76 | 1020.9 |
| 20260507141602 | 54 | 21 | 2.0 | 4.0 | 0.00 | 0.00 | 0.00 | 78 | 1020.8 |
| 20260507140109 | 54 | 9 | 2.0 | 3.0 | 0.00 | 0.00 | 0.00 | 77 | 1020.6 |
| 20260507134550 | 54 | 352 | 1.0 | 2.0 | 0.00 | 0.00 | 0.00 | 78 | 1020.6 |
| 20260507133052 | 54 | 30 | 1.0 | 2.0 | 0.00 | 0.00 | 0.00 | 78 | 1020.5 |
| 20260507131552 | 54 | 32 | 2.0 | 2.0 | 0.00 | 0.00 | 0.00 | 78 | 1020.5 |
| 20260507130050 | 54 | 0 | 0.0 | 0.0 | 0.00 | 0.00 | 0.00 | 77 | 1020.6 |
| 20260507124549 | 54 | 9 | 2.0 | 3.0 | 0.00 | 0.00 | 0.00 | 78 | 1020.6 |
| 20260507123052 | 54 | 33 | 1.0 | 2.0 | 0.00 | 0.00 | 0.00 | 78 | 1020.7 |
| 20260507121550 | 54 | 42 | 1.0 | 2.0 | 0.00 | 0.00 | 0.00 | 78 | 1020.7 |
| 20260507120051 | 54 | 32 | 1.0 | 3.0 | 0.00 | 0.00 | 0.00 | 77 | 1020.8 |
| 20260507114556 | 54 | 0 | 0.0 | 1.0 | 0.00 | 0.00 | 0.00 | 78 | 1020.9 |
| 20260507113052 | 54 | 23 | 1.0 | 3.0 | 0.00 | 0.00 | 0.00 | 78 | 1021.0 |
| 20260507111600 | 54 | 39 | 1.0 | 3.0 | 0.00 | 0.00 | 0.00 | 77 | 1021.0 |
| 20260507110052 | 54 | 38 | 2.0 | 5.0 | 0.00 | 0.00 | 0.00 | 77 | 1021.0 |
| 20260507104555 | 54 | 36 | 4.0 | 6.0 | 0.00 | 0.00 | 0.00 | 75 | 1021.1 |
| 20260507103054 | 55 | 44 | 3.0 | 5.0 | 0.00 | 0.00 | 0.00 | 79 | 1021.2 |
| 20260507101607 | 55 | 32 | 2.0 | 5.0 | 0.00 | 0.00 | 0.00 | 80 | 1021.3 |
| 20260507100052 | 55 | 9 | 2.0 | 3.0 | 0.00 | 0.00 | 0.00 | 80 | 1021.4 |
| 20260507094555 | 55 | 343 | 1.0 | 3.0 | 0.00 | 0.00 | 0.00 | 80 | 1021.4 |
| 20260507093100 | 55 | 11 | 3.0 | 4.0 | 0.00 | 0.00 | 0.00 | 77 | 1021.5 |
| 20260507091552 | 55 | 350 | 2.0 | 3.0 | 0.00 | 0.00 | 0.00 | 78 | 1021.6 |
| 20260507090113 | 55 | 0 | 0.0 | 0.0 | 0.00 | 0.00 | 0.00 | 82 | 1021.7 |
| 20260507084555 | 55 | 0 | 0.0 | 0.0 | 0.00 | 0.00 | 0.00 | 81 | 1021.8 |
| 20260507083053 | 55 | 0 | 0.0 | 0.0 | 0.00 | 0.00 | 0.00 | 81 | 1021.7 |
| 20260507081559 | 55 | 0 | 0.0 | 0.0 | 0.00 | 0.00 | 0.00 | 80 | 1021.7 |
| 20260507080055 | 55 | 0 | 0.0 | 0.0 | 0.00 | 0.00 | 0.00 | 80 | 1021.7 |
| 20260507074555 | 55 | 0 | 0.0 | 0.0 | 0.00 | 0.00 | 0.00 | 80 | 1021.7 |
| 20260507073052 | 55 | 237 | 1.0 | 2.0 | 0.00 | 0.00 | 0.00 | 81 | 1021.7 |
| 20260507071548 | 54 | 253 | 2.0 | 3.0 | 0.00 | 0.00 | 0.00 | 80 | 1021.6 |
| 20260507070056 | 54 | 0 | 0.0 | 1.0 | 0.00 | 0.00 | 0.00 | 80 | 1021.5 |
| 20260507064607 | 54 | 0 | 0.0 | 2.0 | 0.00 | 0.00 | 0.00 | 81 | 1021.6 |
| 20260507063055 | 54 | 246 | 1.0 | 3.0 | 0.00 | 0.00 | 0.00 | 81 | 1021.7 |
| 20260507061553 | 54 | 244 | 2.0 | 3.0 | 0.00 | 0.00 | 0.00 | 81 | 1021.7 |
| 20260507060058 | 54 | 246 | 2.0 | 4.0 | 0.00 | 0.00 | 0.00 | 81 | 1021.7 |
| 20260507054609 | 54 | 238 | 4.0 | 7.0 | 0.00 | 0.00 | 0.00 | 80 | 1021.5 |
| 20260507053059 | 54 | 257 | 5.0 | 8.0 | 0.00 | 0.00 | 0.00 | 79 | 1021.5 |
| 20260507051555 | 54 | 242 | 3.0 | 5.0 | 0.00 | 0.00 | 0.00 | 80 | 1021.6 |
| 20260507050056 | 54 | 241 | 3.0 | 5.0 | 0.00 | 0.00 | 0.00 | 79 | 1021.5 |
| 20260507044558 | 55 | 244 | 2.0 | 7.0 | 0.00 | 0.00 | 0.00 | 79 | 1021.5 |
| 20260507043101 | 55 | 241 | 4.0 | 6.0 | 0.00 | 0.00 | 0.00 | 79 | 1021.3 |
| 20260507041603 | 55 | 248 | 4.0 | 7.0 | 0.00 | 0.00 | 0.00 | 78 | 1021.1 |
| 20260507040058 | 55 | 246 | 4.0 | 7.0 | 0.00 | 0.00 | 0.00 | 77 | 1021.0 |
| 20260507034556 | 56 | 259 | 3.0 | 9.0 | 0.00 | 0.00 | 0.00 | 76 | 1020.8 |
| 20260507033047 | 57 | 257 | 6.0 | 12.0 | 0.00 | 0.00 | 0.00 | 75 | 1020.4 |
| 20260507031551 | 57 | 248 | 8.0 | 12.0 | 0.00 | 0.00 | 0.00 | 75 | 1020.2 |
| 20260507030058 | 58 | 254 | 6.0 | 10.0 | 0.00 | 0.00 | 0.00 | 73 | 1020.1 |
| 20260507024604 | 59 | 248 | 6.0 | 11.0 | 0.00 | 0.00 | 0.00 | 72 | 1019.9 |
| 20260507023110 | 60 | 251 | 9.0 | 14.0 | 0.00 | 0.00 | 0.00 | 70 | 1020.0 |
| 20260507021556 | 61 | 245 | 9.0 | 13.0 | 0.00 | 0.00 | 0.00 | 69 | 1020.0 |
| 20260507020056 | 62 | 246 | 7.0 | 13.0 | 0.00 | 0.00 | 0.00 | 68 | 1019.9 |
| 20260507014608 | 63 | 255 | 7.0 | 16.0 | 0.00 | 0.00 | 0.00 | 68 | 1020.0 |
| 20260507013112 | 63 | 239 | 7.0 | 13.0 | 0.00 | 0.00 | 0.00 | 66 | 1019.9 |
| 20260507011555 | 64 | 252 | 8.0 | 15.0 | 0.00 | 0.00 | 0.00 | 64 | 1020.0 |
| 20260507010052 | 65 | 265 | 8.0 | 12.0 | 0.00 | 0.00 | 0.00 | 62 | 1020.0 |
| 20260507004553 | 66 | 287 | 8.0 | 14.0 | 0.00 | 0.00 | 0.00 | 63 | 1020.0 |
| 20260507003056 | 67 | 294 | 8.0 | 14.0 | 0.00 | 0.00 | 0.00 | 60 | 1020.0 |
| 20260507001614 | 68 | 246 | 7.0 | 13.0 | 0.00 | 0.00 | 0.00 | 59 | 1020.0 |
| 20260507000052 | 68 | 246 | 8.0 | 14.0 | 0.00 | 0.00 | 0.00 | 60 | 1020.0 |
| 20260506234555 | 68 | 282 | 9.0 | 14.0 | 0.00 | 0.00 | 0.00 | 60 | 1020.1 |
| 20260506233049 | 69 | 286 | 8.0 | 15.0 | 0.00 | 0.00 | 0.00 | 59 | 1020.0 |
| 20260506231551 | 70 | 315 | 7.0 | 11.0 | 0.00 | 0.00 | 0.00 | 58 | 1019.9 |
| 20260506230052 | 70 | 238 | 4.0 | 10.0 | 0.00 | 0.00 | 0.00 | 58 | 1020.0 |
| 20260506224557 | 70 | 203 | 4.0 | 9.0 | 0.00 | 0.00 | 0.00 | 58 | 1020.0 |
| 20260506223111 | 71 | 285 | 2.0 | 11.0 | 0.00 | 0.00 | 0.00 | 57 | 1020.2 |
| 20260506221555 | 70 | 196 | 0.0 | 9.0 | 0.00 | 0.00 | 0.00 | 58 | 1020.3 |
| 20260506220051 | 70 | 223 | 3.0 | 8.0 | 0.00 | 0.00 | 0.00 | 58 | 1020.3 |
| 20260506214558 | 69 | 203 | 3.0 | 8.0 | 0.00 | 0.00 | 0.00 | 59 | 1020.5 |
| 20260506213102 | 68 | 238 | 3.0 | 8.0 | 0.00 | 0.00 | 0.00 | 59 | 1020.5 |
| 20260506211557 | 68 | 138 | 3.0 | 9.0 | 0.00 | 0.00 | 0.00 | 60 | 1020.6 |
| 20260506210109 | 67 | 218 | 3.0 | 11.0 | 0.00 | 0.00 | 0.00 | 62 | 1020.6 |
| 20260506204555 | 67 | 174 | 4.0 | 8.0 | 0.00 | 0.00 | 0.00 | 63 | 1020.8 |
| 20260506203101 | 65 | 325 | 2.0 | 8.0 | 0.00 | 0.00 | 0.00 | 67 | 1020.9 |
| 20260506201553 | 65 | 134 | 2.0 | 9.0 | 0.00 | 0.00 | 0.00 | 68 | 1020.9 |
| 20260506200136 | 65 | 255 | 1.0 | 7.0 | 0.00 | 0.00 | 0.00 | 70 | 1021.1 |
| 20260506194558 | 63 | 182 | 2.0 | 7.0 | 0.00 | 0.00 | 0.00 | 72 | 1021.0 |
| 20260506193052 | 63 | 173 | 3.0 | 8.0 | 0.00 | 0.00 | 0.00 | 72 | 1021.0 |
| 20260506191554 | 63 | 181 | 3.0 | 6.0 | 0.00 | 0.00 | 0.00 | 72 | 1021.0 |
| 20260506190056 | 61 | 201 | 3.0 | 8.0 | 0.00 | 0.00 | 0.00 | 74 | 1021.1 |
| 20260506184554 | 61 | 192 | 3.0 | 15.0 | 0.00 | 0.00 | 0.00 | 76 | 1021.2 |
| 20260506183055 | 60 | 271 | 3.0 | 9.0 | 0.00 | 0.00 | 0.00 | 76 | 1021.2 |
| 20260506181557 | 59 | 181 | 5.0 | 9.0 | 0.00 | 0.00 | 0.00 | 77 | 1021.2 |
| 20260506180108 | 59 | 212 | 2.0 | 6.0 | 0.00 | 0.00 | 0.00 | 79 | 1021.1 |
| 20260506174558 | 58 | 242 | 3.0 | 7.0 | 0.00 | 0.00 | 0.00 | 80 | 1021.1 |
| 20260506173107 | 57 | 207 | 3.0 | 7.0 | 0.00 | 0.00 | 0.00 | 81 | 1021.2 |
| 20260506171557 | 56 | 269 | 3.0 | 7.0 | 0.00 | 0.00 | 0.00 | 83 | 1021.3 |
| 20260506170050 | 56 | 170 | 3.0 | 8.0 | 0.00 | 0.00 | 0.00 | 84 | 1020.9 |
| 20260506164553 | 56 | 254 | 4.0 | 7.0 | 0.00 | 0.00 | 0.00 | 83 | 1021.3 |
| 20260506163051 | 56 | 194 | 3.0 | 5.0 | 0.00 | 0.00 | 0.00 | 83 | 1021.1 |
| 20260506161557 | 56 | 234 | 1.0 | 5.0 | 0.00 | 0.00 | 0.00 | 83 | 1021.0 |
| 20260506160106 | 56 | 163 | 4.0 | 7.0 | 0.00 | 0.00 | 0.00 | 82 | 1020.5 |